Location: Kudlacze
(49.7878°N, 20.0200°E)
Time: 22:52:44
(UTC+02:00)

ISS - Visible Passes

Search period start: 28 July 2021 00:00
Search period end: 07 August 2021 00:00
Orbit: 419 x 421 km, 51.6° (Epoch: 28 July)

Date Brightness Start Highest point End Pass type
(mag) Time Alt. Az. Time Alt. Az. Time Alt. Az.
28 Jul -2.2 22:25:08 10° W 22:27:53 23° SW 22:28:39 21° SSW visible
29 Jul -2.7 21:37:36 10° W 21:40:42 33° SSW 21:42:58 15° SSE visible
30 Jul -1.2 22:28:59 10° WSW 22:29:37 10° SW 22:30:15 10° SW visible
31 Jul -1.5 21:40:22 10° W 21:42:30 16° SW 21:44:39 10° S visible
01 Aug -1.9 20:52:37 10° W 20:55:21 23° SW 20:58:05 10° SSE visible
03 Aug -0.9 20:56:31 10° SW 20:57:01 10° SW 20:57:31 10° SW visible
